WAT5643 EHAM-KATL

Flight info

Callsign WAT5643
Flight time N/A
Altitude 36000
Route IDRID L980 MANGO DCT ENHAQ DCT GAJIT DCT BAPHU DCT LESLU/M085F360 DCT RODEL/M085F370 DCT 51N020W 51N030W 5030N04000W 48N050W DCT NICSO/N0476F380 N260B ALLEX/N0477F400 DCT AJJAY DCT PEASE DCT GDM DCT PWL DCT SAX DCT LRP DCT MOL DCT FLASK OZZZI2
Aircraft A359/H-SDE2E3GHIJ3J4J5LM1ORWXY/LB1D1

Departure

Time N/A
Airport Amsterdam Airport Schiphol (EHAM)

Arrival

Time 2026-05-06 11:02
Airport Hartsfield Jackson Atlanta International Airport (KATL)
Time Latitude Longitude Altitude Speed Heading
2026-05-06 10:31 35.22137 -82.54425 36808 ft 392 kts 239°
2026-05-06 10:31 35.20377 -82.56602 36333 ft 395 kts 238°
2026-05-06 10:32 35.18551 -82.58865 35793 ft 396 kts 237°
2026-05-06 10:32 35.16785 -82.61043 35239 ft 397 kts 238°
2026-05-06 10:32 35.14991 -82.63238 34724 ft 402 kts 237°
2026-05-06 10:32 35.13169 -82.65415 34196 ft 403 kts 235°
2026-05-06 10:33 35.11340 -82.67590 33676 ft 406 kts 235°
2026-05-06 10:33 35.09472 -82.69817 33139 ft 410 kts 235°
2026-05-06 10:33 35.07404 -82.72275 32607 ft 412 kts 235°
2026-05-06 10:33 35.05673 -82.74332 32109 ft 414 kts 234°
2026-05-06 10:34 35.03945 -82.76386 31585 ft 415 kts 233°
2026-05-06 10:34 35.01873 -82.78841 30944 ft 417 kts 232°
2026-05-06 10:34 34.99918 -82.81150 30391 ft 417 kts 232°
2026-05-06 10:34 34.97918 -82.83498 30018 ft 413 kts 231°
2026-05-06 10:35 34.95971 -82.85784 29641 ft 410 kts 232°
2026-05-06 10:35 34.94043 -82.88055 29263 ft 407 kts 232°
2026-05-06 10:35 34.92109 -82.90324 28890 ft 404 kts 232°
2026-05-06 10:35 34.90196 -82.92548 28524 ft 401 kts 231°
2026-05-06 10:36 34.88282 -82.94751 28158 ft 398 kts 231°
2026-05-06 10:36 34.86380 -82.96933 27793 ft 395 kts 231°
2026-05-06 10:36 34.84482 -82.99111 27420 ft 392 kts 231°
2026-05-06 10:36 34.82592 -83.01288 27035 ft 389 kts 231°
2026-05-06 10:37 34.80725 -83.03441 26673 ft 387 kts 231°
2026-05-06 10:37 34.78862 -83.05591 26301 ft 384 kts 231°
2026-05-06 10:37 34.77028 -83.07709 25941 ft 381 kts 231°
2026-05-06 10:37 34.75229 -83.09782 25590 ft 380 kts 231°
2026-05-06 10:38 34.73415 -83.11878 25235 ft 379 kts 231°
2026-05-06 10:38 34.71655 -83.13909 24895 ft 378 kts 231°
2026-05-06 10:38 34.69827 -83.16015 24539 ft 375 kts 231°
2026-05-06 10:38 34.67918 -83.18206 24161 ft 375 kts 231°
2026-05-06 10:39 34.66039 -83.20369 23793 ft 372 kts 231°
2026-05-06 10:39 34.64215 -83.22465 23433 ft 370 kts 231°
2026-05-06 10:39 34.62466 -83.24471 23082 ft 369 kts 231°
2026-05-06 10:39 34.60726 -83.26472 22734 ft 366 kts 230°
2026-05-06 10:40 34.58938 -83.28519 22382 ft 364 kts 231°
2026-05-06 10:40 34.57171 -83.30544 22028 ft 362 kts 231°
2026-05-06 10:40 34.55444 -83.32516 21685 ft 359 kts 231°
2026-05-06 10:40 34.53677 -83.34550 21343 ft 356 kts 231°
2026-05-06 10:41 34.51857 -83.36646 20980 ft 354 kts 231°
2026-05-06 10:41 34.50051 -83.38723 20625 ft 352 kts 231°
2026-05-06 10:41 34.48285 -83.40756 20280 ft 350 kts 231°
2026-05-06 10:41 34.46608 -83.42683 19952 ft 347 kts 231°
2026-05-06 10:42 34.44928 -83.44610 19612 ft 345 kts 231°
2026-05-06 10:42 34.43254 -83.46527 19279 ft 343 kts 231°
2026-05-06 10:42 34.41639 -83.48379 18967 ft 340 kts 231°
2026-05-06 10:42 34.40008 -83.50248 18645 ft 338 kts 231°
2026-05-06 10:43 34.38401 -83.52090 18318 ft 336 kts 232°
2026-05-06 10:43 34.36830 -83.53887 17995 ft 334 kts 231°
2026-05-06 10:43 34.35247 -83.55702 17674 ft 331 kts 231°
2026-05-06 10:44 34.32084 -83.59319 17029 ft 327 kts 231°
2026-05-06 10:44 34.30523 -83.61105 16718 ft 324 kts 231°
2026-05-06 10:44 34.28992 -83.62852 16406 ft 323 kts 230°
2026-05-06 10:44 34.27429 -83.64560 16113 ft 322 kts 229°
2026-05-06 10:45 34.25858 -83.66227 15804 ft 321 kts 228°
2026-05-06 10:45 34.24310 -83.67876 15509 ft 319 kts 228°
2026-05-06 10:45 34.22738 -83.69552 15194 ft 317 kts 227°
2026-05-06 10:45 34.21210 -83.71178 14898 ft 316 kts 227°
2026-05-06 10:46 34.19655 -83.72830 14595 ft 314 kts 227°
2026-05-06 10:46 34.18123 -83.74457 14294 ft 312 kts 227°
2026-05-06 10:46 34.16588 -83.76080 13965 ft 306 kts 227°
2026-05-06 10:46 34.15048 -83.77711 13392 ft 290 kts 226°
2026-05-06 10:47 34.13655 -83.79184 12904 ft 279 kts 226°
2026-05-06 10:47 34.12287 -83.80634 12489 ft 276 kts 226°
2026-05-06 10:47 34.10934 -83.82072 12321 ft 273 kts 226°
2026-05-06 10:47 34.09578 -83.83511 12122 ft 266 kts 226°
2026-05-06 10:48 34.08291 -83.84887 11936 ft 268 kts 226°
2026-05-06 10:48 34.06985 -83.86295 11629 ft 268 kts 226°
2026-05-06 10:48 34.05655 -83.87728 11330 ft 266 kts 226°
2026-05-06 10:48 34.04344 -83.89134 11052 ft 264 kts 226°
2026-05-06 10:49 34.03061 -83.90510 10815 ft 261 kts 226°
2026-05-06 10:49 34.01796 -83.91866 10572 ft 258 kts 226°
2026-05-06 10:49 34.00458 -83.93298 10303 ft 255 kts 226°
2026-05-06 10:49 33.99239 -83.94604 10069 ft 258 kts 225°
2026-05-06 10:50 33.97956 -83.95890 9814 ft 264 kts 217°
2026-05-06 10:50 33.96370 -83.96691 9543 ft 273 kts 198°
2026-05-06 10:50 33.94612 -83.96841 9312 ft 279 kts 185°
2026-05-06 10:50 33.92838 -83.96765 9058 ft 281 kts 184°
2026-05-06 10:51 33.91056 -83.96668 8947 ft 280 kts 184°
2026-05-06 10:51 33.89247 -83.96577 8961 ft 281 kts 184°
2026-05-06 10:51 33.87325 -83.96483 8968 ft 283 kts 184°
2026-05-06 10:51 33.85433 -83.96397 8977 ft 283 kts 184°
2026-05-06 10:52 33.83633 -83.96317 8979 ft 282 kts 184°
2026-05-06 10:52 33.81802 -83.96240 8960 ft 282 kts 184°
2026-05-06 10:52 33.79951 -83.96162 8716 ft 282 kts 184°
2026-05-06 10:52 33.78140 -83.96084 8475 ft 281 kts 184°
2026-05-06 10:53 33.76331 -83.96046 8241 ft 278 kts 188°
2026-05-06 10:53 33.74563 -83.96289 8006 ft 274 kts 197°
2026-05-06 10:53 33.72861 -83.96801 7752 ft 270 kts 201°
2026-05-06 10:53 33.71186 -83.97378 7536 ft 269 kts 202°
2026-05-06 10:54 33.69511 -83.97966 7402 ft 267 kts 201°
2026-05-06 10:54 33.67863 -83.98541 7275 ft 267 kts 201°
2026-05-06 10:54 33.66203 -83.99118 7160 ft 266 kts 201°
2026-05-06 10:54 33.64561 -83.99754 7101 ft 263 kts 211°
2026-05-06 10:55 33.63329 -84.01041 7042 ft 253 kts 242°
2026-05-06 10:55 33.62893 -84.02903 6888 ft 252 kts 267°
2026-05-06 10:55 33.62976 -84.04901 6578 ft 251 kts 274°
2026-05-06 10:55 33.63113 -84.06840 6325 ft 248 kts 273°
2026-05-06 10:56 33.63200 -84.08766 6086 ft 244 kts 271°
2026-05-06 10:56 33.63242 -84.10707 5780 ft 238 kts 270°
2026-05-06 10:56 33.63256 -84.12600 5417 ft 234 kts 269°
2026-05-06 10:56 33.63255 -84.14426 5130 ft 228 kts 268°
2026-05-06 10:57 33.63248 -84.16246 4842 ft 223 kts 268°
2026-05-06 10:57 33.63239 -84.17973 4666 ft 214 kts 268°
2026-05-06 10:57 33.63231 -84.19665 4484 ft 207 kts 268°
2026-05-06 10:57 33.63223 -84.21270 4260 ft 202 kts 268°
2026-05-06 10:58 33.63217 -84.22901 4037 ft 196 kts 267°
2026-05-06 10:58 33.63212 -84.24448 3794 ft 184 kts 267°
2026-05-06 10:58 33.63208 -84.25864 3557 ft 173 kts 267°
2026-05-06 10:58 33.63205 -84.27220 3317 ft 160 kts 266°
2026-05-06 10:59 33.63202 -84.28503 3108 ft 156 kts 266°
2026-05-06 10:59 33.63196 -84.29794 2909 ft 157 kts 266°
2026-05-06 10:59 33.63195 -84.31085 2702 ft 151 kts 265°
2026-05-06 10:59 33.63191 -84.32284 2522 ft 145 kts 266°
2026-05-06 11:00 33.63191 -84.33453 2350 ft 144 kts 266°
2026-05-06 11:00 33.63191 -84.34617 2172 ft 144 kts 266°
2026-05-06 11:00 33.63186 -84.35743 2000 ft 143 kts 267°
2026-05-06 11:00 33.63187 -84.36844 1827 ft 143 kts 267°
2026-05-06 11:01 33.63187 -84.37938 1652 ft 142 kts 266°
2026-05-06 11:01 33.63185 -84.39042 1478 ft 142 kts 266°
2026-05-06 11:01 33.63184 -84.40135 1306 ft 142 kts 267°
2026-05-06 11:01 33.63178 -84.41218 1113 ft 140 kts 267°
2026-05-06 11:02 33.63183 -84.42275 1002 ft 135 kts 268°
2026-05-06 11:02 33.63176 -84.43163 1009 ft 92 kts 271°
2026-05-06 11:02 33.63171 -84.43693 1016 ft 53 kts 267°
2026-05-06 11:02 33.63184 -84.44002 1019 ft 31 kts 283°
2026-05-06 11:03 33.63226 -84.44158 1022 ft 15 kts 302°
2026-05-06 11:03 33.63269 -84.44239 1023 ft 7 kts 302°
2026-05-06 11:03 33.63298 -84.44285 1024 ft 1 kts 322°
2026-05-06 11:03 33.63309 -84.44285 1024 ft 2 kts 14°
2026-05-06 11:04 33.63332 -84.44266 1024 ft 5 kts 45°
2026-05-06 11:04 33.63367 -84.44222 1023 ft 8 kts 39°
2026-05-06 11:04 33.63422 -84.44194 1024 ft 8 kts
2026-05-06 11:04 33.63483 -84.44196 1025 ft 8 kts 359°
2026-05-06 11:05 33.63546 -84.44195 1025 ft 10 kts
2026-05-06 11:05 33.63618 -84.44191 1025 ft 11 kts
2026-05-06 11:05 33.63652 -84.44172 1025 ft 4 kts 56°
2026-05-06 11:05 33.63657 -84.44127 1024 ft 7 kts 88°
2026-05-06 11:06 33.63660 -84.44054 1023 ft 10 kts 88°
2026-05-06 11:06 33.63662 -84.43952 1021 ft 14 kts 90°
2026-05-06 11:06 33.63661 -84.43826 1019 ft 17 kts 90°
2026-05-06 11:06 33.63660 -84.43679 1019 ft 19 kts 91°
2026-05-06 11:07 33.63664 -84.43535 1016 ft 9 kts 96°
2026-05-06 11:07 33.63659 -84.43446 1016 ft 11 kts 87°
2026-05-06 11:07 33.63663 -84.43343 1016 ft 13 kts 90°
2026-05-06 11:07 33.63662 -84.43229 1014 ft 16 kts 91°
2026-05-06 11:08 33.63661 -84.43089 1012 ft 18 kts 89°
2026-05-06 11:08 33.63663 -84.42932 1011 ft 20 kts 91°
2026-05-06 11:08 33.63661 -84.42790 1008 ft 16 kts 91°
2026-05-06 11:08 33.63652 -84.42643 1006 ft 19 kts 88°
2026-05-06 11:09 33.63653 -84.42471 1002 ft 19 kts 94°
2026-05-06 11:09 33.63654 -84.42387 998 ft 10 kts 87°
2026-05-06 11:09 33.63654 -84.42276 994 ft 15 kts 91°
2026-05-06 11:09 33.63654 -84.42157 990 ft 0 kts 90°
2026-05-06 11:10 33.63656 -84.42145 989 ft 2 kts 71°
2026-05-06 11:10 33.63676 -84.42122 988 ft 5 kts 24°
2026-05-06 11:10 33.63714 -84.42128 988 ft 6 kts 340°
2026-05-06 11:10 33.63756 -84.42142 989 ft 6 kts 350°
2026-05-06 11:11 33.63784 -84.42146 989 ft 3 kts 355°
2026-05-06 11:11 33.63810 -84.42147 989 ft 4 kts 358°
2026-05-06 11:11 33.63837 -84.42148 989 ft 2 kts
2026-05-06 11:11 33.63857 -84.42133 988 ft 5 kts 49°
2026-05-06 11:12 33.63865 -84.42117 986 ft 1 kts 72°
2026-05-06 11:12 33.63865 -84.42099 985 ft 2 kts 94°
2026-05-06 11:12 33.63864 -84.42074 984 ft 3 kts 91°
2026-05-06 11:12 33.63863 -84.42059 983 ft 0 kts 91°
2026-05-06 11:13 33.63863 -84.42052 983 ft 0 kts 91°
2026-05-06 11:13 33.63863 -84.42050 983 ft 0 kts 91°